Weather History for Kingman, AZ

Change the Weather History Date:

Thursday, October 31, 2013

  Actual Average Record
Temperature  
Mean Temperature 49 °F 57 °F  
Max Temperature 67 °F 71 °F 85 °F (1965)
Min Temperature 31 °F 42 °F 28 °F (1971)
Degree Days  
Heating Degree Days 16 9  
Month to date heating degree days 211 132  
Since 1 July heating degree days 237 139  
Cooling Degree Days 0 0  
Month to date cooling degree days 7 66  
Year to date cooling degree days 2106 2092  
Moisture  
Dew Point 25 °F    
Average Humidity 45    
Maximum Humidity 72    
Minimum Humidity 18    
Precipitation  
Precipitation 0.00 in 0.03 in 1.32 in (1957)
Month to date precipitation 0.13 0.71  
Year to date precipitation 5.97 7.00  
Sea Level Pressure  
Sea Level Pressure 30.05 in    
Wind  
Wind Speed 6 mph (ENE)    
Max Wind Speed 13 mph    
Max Gust Speed 17 mph    
Visibility 10 miles    
Events      
T = Trace of Precipitation, MM = Missing Value Source: NWS Daily Summary

Daily Weather History Graph

Daily Weather History Graph

Search for Another Location

Airport:

Trip Planner

Search our weather history database for the weather conditions in past years. The results will help you decide how hot, cold, wet, or windy it might be!

Date:

Astronomy

Oct. 31, 2013 Rise Set
Actual Time 6:56 AM MST 5:41 PM MST
Civil Twilight 6:30 AM MST 6:07 PM MST
Nautical Twilight 6:00 AM MST 6:37 PM MST
Astronomical Twilight 5:30 AM MST 7:07 PM MST
Moon 3:56 AM MST (10/31) 3:57 PM MST (10/31)
Length of Visible Light 11h 37m
Length of Day
10h 45m
Waning Crescent, 9% of the Moon is Illuminated
Oct 31
Waning Crescent
Nov 3
New
Nov 9
First Quarter
Nov 17
Full
Nov 25
Last Quarter

Hourly Weather History & Observations

Time (MST) Temp. Windchill Dew Point Humidity Pressure Visibility Wind Dir Wind Speed Gust Speed Precip Events Conditions
12:51 AM 35.1 °F - 25.0 °F 67% 30.02 in 10.0 mi Calm Calm - N/A   Clear
1:51 AM 33.1 °F - 24.1 °F 70% 30.04 in 10.0 mi Calm Calm - N/A   Clear
2:51 AM 34.0 °F - 25.0 °F 70% 30.03 in 10.0 mi Calm Calm - N/A   Clear
3:51 AM 33.1 °F - 25.0 °F 72% 30.03 in 10.0 mi Calm Calm - N/A   Clear
4:51 AM 32.0 °F 28.7 °F 24.1 °F 73% 30.04 in 10.0 mi SSE 3.5 mph - N/A   Clear
5:51 AM 35.1 °F - 25.0 °F 67% 30.06 in 10.0 mi Calm Calm - N/A   Clear
6:51 AM 37.0 °F 30.4 °F 27.0 °F 67% 30.08 in 10.0 mi East 9.2 mph - N/A   Clear
7:51 AM 43.0 °F - 28.9 °F 58% 30.09 in 10.0 mi Calm Calm - N/A   Clear
8:51 AM 48.9 °F - 28.9 °F 46% 30.11 in 10.0 mi North 3.5 mph - N/A   Clear
9:51 AM 55.9 °F - 28.9 °F 36% 30.11 in 10.0 mi Variable 4.6 mph - N/A   Clear
10:51 AM 59.0 °F - 28.9 °F 32% 30.09 in 10.0 mi North 6.9 mph - N/A   Clear
11:51 AM 62.1 °F - 28.0 °F 28% 30.08 in 10.0 mi North 6.9 mph - N/A   Clear
12:51 PM 64.0 °F - 26.1 °F 24% 30.05 in 10.0 mi NNE 6.9 mph - N/A   Clear
1:51 PM 64.9 °F - 27.0 °F 24% 30.04 in 10.0 mi NNE 6.9 mph - N/A   Clear
2:51 PM 66.0 °F - 25.0 °F 21% 30.02 in 10.0 mi ENE 6.9 mph - N/A   Clear
3:51 PM 66.0 °F - 21.9 °F 19% 30.02 in 10.0 mi North 9.2 mph - N/A   Clear
4:51 PM 64.0 °F - 24.1 °F 22% 30.01 in 10.0 mi North 11.5 mph - N/A   Clear
5:51 PM 54.0 °F - 21.9 °F 29% 30.03 in 10.0 mi NNE 8.1 mph - N/A   Clear
6:51 PM 53.1 °F - 21.9 °F 30% 30.04 in 10.0 mi NE 8.1 mph - N/A   Clear
7:51 PM 50.0 °F - 25.0 °F 38% 30.04 in 10.0 mi East 9.2 mph - N/A   Clear
8:51 PM 46.0 °F 40.6 °F 25.0 °F 44% 30.04 in 10.0 mi ESE 11.5 mph - N/A   Clear
9:51 PM 45.0 °F 39.7 °F 24.1 °F 44% 30.05 in 10.0 mi ESE 10.4 mph - N/A   Clear
10:51 PM 46.0 °F 41.0 °F 25.0 °F 44% 30.05 in 10.0 mi ESE 10.4 mph - N/A   Clear
11:51 PM 44.1 °F 38.6 °F 25.0 °F 47% 30.05 in 10.0 mi ESE 10.4 mph - N/A   Clear